Hourly Data Report for August 06, 2022

SANDSPIT
BRITISH COLUMBIA
Current Station Operator: NAVCAN

53°15'15.000" N
131°48'50.000" W
6.40 m
1057052
71111
YZP

Download Data

Hourly Data (August 2022)
Hourly Data Report for August 6, 2022
TIME
LST
Temp Definition
°C
Dew Point Definition
°C
Rel Hum Definition
%
Precip. Amount Definition
mm

Wind Dir Definition
10's deg

Wind Spd Definition
km/h
Visibility Definition
km
Stn Press Definition
kPa
Hmdx Definition


Wind Chill Definition


Weather Definition


00:00 14.0 11.9 87 0.0 26 22 16.1 102.25     LegendNANA
01:00 13.9 11.3 84 0.0 26 21 16.1 102.24     LegendNANA
02:00 14.0 11.3 84 0.0 25 15 16.1 102.20     LegendNANA
03:00 14.4 11.4 82 0.0 26 18 16.1 102.17     LegendNANA
04:00 14.7 11.7 82 0.0 27 8 16.1 102.15     LegendNANA
05:00 13.3 10.9 85 0.0 LegendMM 4 16.1 102.13     LegendNANA
06:00 13.0 11.4 90 0.0 LegendMM 4 16.1 102.13     LegendNANA
07:00 15.5 13.1 85 0.0   0 16.1 102.12     LegendNANA
08:00 16.1 13.1 82 0.0 10 8 16.1 102.15     LegendNANA
09:00 17.1 13.6 80 0.0 6 5 16.1 102.16     LegendNANA
10:00 17.4 13.8 79 0.0 9 9 16.1 102.15     LegendNANA
11:00 19.1 15.1 77 0.0 12 11 16.1 102.15     LegendNANA
12:00 18.8 14.0 73 0.0 13 9 16.1 102.15     LegendNANA
13:00 19.0 14.5 75 0.0 14 13 16.1 102.15     LegendNANA
14:00 19.1 15.0 77 0.0 15 17 16.1 102.15     LegendNANA
15:00 19.1 15.5 79 0.0 14 18 16.1 102.15     LegendNANA
16:00 19.0 14.5 75 0.0 16 13 16.1 102.15     LegendNANA
17:00 19.1 15.6 80 0.0 15 13 16.1 102.12     LegendNANA
18:00 20.9 15.5 71 0.0 27 21 16.1 102.10 25   LegendNANA
19:00 19.9 15.6 76 0.0 27 26 16.1 102.09     LegendNANA
20:00 19.0 15.3 79 0.0 28 21 16.1 102.12     LegendNANA
21:00 17.6 15.3 86 0.0 26 24 16.1 102.12     LegendNANA
22:00 17.6 15.4 87 0.0 25 18 16.1 102.12     LegendNANA
23:00 17.3 15.1 87 0.0 27 22 16.1 102.11     LegendNANA

Notes on Data Quality.

Legend

  • E = Estimated
  • M = Missing
  • NA = Not Available*
  • [empty] = Indicates an unobserved value
Date modified: